TimeEDT,TemperatureF,Dew PointF,Humidity,Sea Level PressureIn,VisibilityMPH,Wind Direction,Wind SpeedMPH,Gust SpeedMPH,PrecipitationIn,Events,Conditions,WindDirDegrees,DateUTC
12:53 AM,64.9,61.0,87,30.09,10.0,ENE,6.9,-,N/A,,Clear,70,2013-04-24 04:53:00
1:53 AM,64.0,61.0,90,30.08,10.0,ENE,6.9,-,N/A,,Clear,60,2013-04-24 05:53:00
2:53 AM,62.1,61.0,96,30.07,10.0,ENE,3.5,-,N/A,,Clear,70,2013-04-24 06:53:00
3:53 AM,62.1,61.0,96,30.07,10.0,NE,4.6,-,N/A,,Clear,50,2013-04-24 07:53:00
4:53 AM,61.0,60.1,97,30.07,10.0,NE,6.9,-,N/A,,Clear,50,2013-04-24 08:53:00
5:53 AM,60.8,60.8,100,30.08,10.0,ENE,3.5,-,N/A,,Clear,60,2013-04-24 09:53:00
6:53 AM,60.1,59.0,96,30.09,8.0,NE,4.6,-,N/A,,Clear,40,2013-04-24 10:53:00
7:53 AM,62.1,60.1,93,30.11,10.0,NE,5.8,-,N/A,,Clear,50,2013-04-24 11:53:00
8:53 AM,66.0,62.1,87,30.12,10.0,East,5.8,-,N/A,,Clear,80,2013-04-24 12:53:00
9:53 AM,73.0,61.0,66,30.14,10.0,ESE,6.9,-,N/A,,Clear,110,2013-04-24 13:53:00
10:53 AM,77.0,61.0,58,30.13,10.0,ESE,10.4,-,N/A,,Clear,110,2013-04-24 14:53:00
11:53 AM,79.0,61.0,54,30.12,10.0,SSE,8.1,-,N/A,,Clear,150,2013-04-24 15:53:00
12:53 PM,81.0,61.0,50,30.10,10.0,East,9.2,-,N/A,,Partly Cloudy,80,2013-04-24 16:53:00
1:53 PM,84.0,61.0,46,30.09,10.0,SE,9.2,17.3,N/A,,Scattered Clouds,130,2013-04-24 17:53:00
2:53 PM,82.0,61.0,49,30.07,10.0,SSW,6.9,-,N/A,,Scattered Clouds,210,2013-04-24 18:53:00
3:53 PM,84.9,57.9,40,30.05,10.0,Variable,3.5,-,N/A,,Mostly Cloudy,0,2013-04-24 19:53:00
4:53 PM,84.0,64.0,51,30.05,10.0,WSW,8.1,-,N/A,,Clear,240,2013-04-24 20:53:00
5:53 PM,82.9,64.9,54,30.05,10.0,WNW,9.2,-,N/A,,Scattered Clouds,290,2013-04-24 21:53:00
6:53 PM,80.1,64.0,58,30.06,10.0,WNW,6.9,-,N/A,,Clear,300,2013-04-24 22:53:00
7:53 PM,77.0,64.0,64,30.08,10.0,NNW,5.8,-,N/A,,Clear,340,2013-04-24 23:53:00
8:53 PM,75.0,64.9,71,30.09,10.0,NNW,3.5,-,N/A,,Clear,340,2013-04-25 00:53:00
9:53 PM,73.0,64.9,76,30.12,10.0,North,5.8,-,N/A,,Clear,350,2013-04-25 01:53:00
10:53 PM,72.0,64.9,78,30.13,10.0,ENE,3.5,-,N/A,,Partly Cloudy,60,2013-04-25 02:53:00
11:53 PM,71.1,62.1,73,30.14,10.0,East,4.6,-,N/A,,Mostly Cloudy,90,2013-04-25 03:53:00